Location: Unspecified
(0.0000°N, 0.0000°E)
Time: 12:16:46
(UTC+00:00)

STARLINK-32455 - Visible Passes

Search period start: 20 July 2025 00:00
Search period end: 30 July 2025 00:00
Orbit: 482 x 484 km, 43.0° (Epoch: 20 July)

Date Brightness Start Highest point End Pass type
(mag) Time Alt. Az. Time Alt. Az. Time Alt. Az.
20 Jul 6.2 19:16:23 10° SW 19:16:52 10° SW 19:17:20 10° SW visible
21 Jul 4.1 05:20:32 10° SSW 05:24:10 48° SE 05:27:49 10° ENE visible
21 Jul 6.2 18:48:11 10° WSW 18:49:06 11° SW 18:49:59 10° SSW visible
22 Jul 4.1 04:54:27 23° SSW 04:56:23 46° SE 05:00:01 10° ENE visible
23 Jul 4.1 04:28:27 43° SE 04:28:34 43° SE 04:32:09 10° ENE visible
24 Jul 5.5 04:02:23 25° E 04:02:23 25° E 04:04:16 10° ENE visible
24 Jul 5.6 05:38:01 10° WNW 05:39:30 12° NW 05:40:58 10° NNW visible
25 Jul 6.8 03:36:15 10° ENE 03:36:15 10° ENE 03:36:19 10° ENE visible
25 Jul 5.5 05:10:30 11° WNW 05:11:35 12° NW 05:13:14 10° NNW visible
26 Jul 5.7 04:44:16 13° NNW 04:44:16 13° NNW 04:45:27 10° NNW visible
